Weather History for KBQK - December, 2010

Change the Weather History Date:

Wednesday, December 15, 2010

  Actual Average Record
Temperature  
Mean Temperature 36 °F -  
Max Temperature 51 °F 66 °F 84 °F (1972)
Min Temperature 22 °F 45 °F 22 °F (2010)
Degree Days  
Heating Degree Days 28    
Moisture  
Dew Point 14 °F    
Average Humidity 45    
Maximum Humidity 79    
Minimum Humidity 18    
Precipitation  
Precipitation 0.00 in - - ()
Sea Level Pressure  
Sea Level Pressure 30.14 in    
Wind  
Wind Speed 2 mph (NW)    
Max Wind Speed 8 mph    
Max Gust Speed -    
Visibility 10 miles    
Events      
Averages and records for this station are not official NWS values.
T = Trace of Precipitation, MM = Missing Value Source: NWS Daily Summary

Daily Weather History Graph

Daily Weather History Graph

Search for Another Location

Airport or City:

Trip Planner

Search our weather history database for the weather conditions in past years. The results will help you decide how hot, cold, wet, or windy it might be!

Date:

Astronomy

Dec. 15, 2010 Rise Set
Actual Time 7:17 AM EST 5:24 PM EST
Civil Twilight 6:50 AM EST 5:51 PM EST
Nautical Twilight 6:20 AM EST 6:21 PM EST
Astronomical Twilight 5:50 AM EST 6:51 PM EST
Moon 1:17 PM EST (12/15) 1:48 AM EST (12/15)
Length of Visible Light 11h 01m
Length of Day
10h 07m
Waxing Gibbous, 70% of the Moon is Illuminated
Dec 15
Waxing Gibbous
Dec 21
Full
Dec 27
Last Quarter
Jan 4
New
Jan 12
First Quarter

Hourly Weather History & Observations

Time (EST) Temp. Windchill Dew Point Humidity Pressure Visibility Wind Dir Wind Speed Gust Speed Precip Events Conditions
12:18 AM 28.2 °F - 16.5 °F 62% 30.13 in 10.0 mi Calm Calm - N/A   Clear
12:38 AM 27.0 °F 23.0 °F 15.3 °F 61% 30.13 in 10.0 mi WNW 3.5 mph - N/A   Clear
12:58 AM 28.9 °F - 13.1 °F 52% 30.13 in 10.0 mi Calm Calm - N/A   Clear
1:18 AM 27.3 °F 23.4 °F 14.5 °F 59% 30.13 in 10.0 mi WNW 3.5 mph - N/A   Clear
1:38 AM 28.2 °F - 13.5 °F 54% 30.14 in 10.0 mi Calm Calm - N/A   Clear
1:58 AM 28.2 °F - 13.3 °F 54% 30.13 in 10.0 mi Calm Calm - N/A   Clear
2:18 AM 27.9 °F - 12.9 °F 54% 30.14 in 10.0 mi Calm Calm - N/A   Clear
2:38 AM 28.0 °F - 13.1 °F 54% 30.14 in 10.0 mi Calm Calm - N/A   Clear
2:58 AM 28.4 °F 23.3 °F 12.2 °F 51% 30.14 in 10.0 mi NW 4.6 mph - N/A   Clear
3:18 AM 28.4 °F 23.3 °F 11.5 °F 49% 30.14 in 10.0 mi WNW 4.6 mph - N/A   Clear
3:38 AM 28.4 °F - 10.4 °F 47% 30.14 in 10.0 mi Calm Calm - N/A   Clear
3:58 AM 27.5 °F - 13.8 °F 56% 30.14 in 10.0 mi Calm Calm - N/A   Clear
4:18 AM 26.6 °F - 16.5 °F 66% 30.13 in 10.0 mi Calm Calm - N/A   Clear
4:38 AM 26.4 °F - 16.9 °F 67% 30.14 in 10.0 mi Calm Calm - N/A   Scattered Clouds
4:58 AM 26.1 °F - 14.7 °F 62% 30.14 in 10.0 mi Calm Calm - N/A   Scattered Clouds
5:18 AM 25.7 °F - 14.0 °F 61% 30.15 in 10.0 mi Calm Calm - N/A   Clear
5:38 AM 26.2 °F - 14.0 °F 60% 30.17 in 10.0 mi Calm Calm - N/A   Clear
5:58 AM 26.4 °F - 13.3 °F 58% 30.17 in 10.0 mi Calm Calm - N/A   Clear
6:18 AM 25.0 °F - 16.0 °F 69% 30.17 in 10.0 mi Calm Calm - N/A   Mostly Cloudy
6:38 AM 24.6 °F - 16.3 °F 71% 30.17 in 10.0 mi Calm Calm - N/A   Mostly Cloudy
6:58 AM 23.5 °F - 16.3 °F 74% 30.17 in 10.0 mi Calm Calm - N/A   Clear
7:18 AM 22.8 °F - 17.2 °F 79% 30.17 in 10.0 mi Calm Calm - N/A   Clear
7:38 AM 24.3 °F - 16.2 °F 71% 30.18 in 10.0 mi Calm Calm - N/A   Clear
7:58 AM 25.7 °F - 16.5 °F 68% 30.19 in 10.0 mi Calm Calm - N/A   Clear
8:18 AM 27.3 °F - 16.5 °F 64% 30.18 in 10.0 mi Calm Calm - N/A   Clear
8:38 AM 30.2 °F - 16.3 °F 56% 30.18 in 10.0 mi Calm Calm - N/A   Clear
8:58 AM 32.0 °F 26.4 °F 14.7 °F 49% 30.17 in 10.0 mi NNW 5.8 mph - N/A   Clear
9:18 AM 33.3 °F 28.9 °F 14.5 °F 46% 30.19 in 10.0 mi North 4.6 mph - N/A   Clear
9:38 AM 35.6 °F 30.7 °F 13.6 °F 41% 30.19 in 10.0 mi NNW 5.8 mph - N/A   Clear
9:58 AM 35.8 °F - 12.0 °F 38% 30.19 in 10.0 mi Calm Calm - N/A   Clear
10:18 AM 37.0 °F 32.4 °F 12.0 °F 36% 30.19 in 10.0 mi North 5.8 mph - N/A   Clear
10:38 AM 38.7 °F - 10.9 °F 32% 30.18 in 10.0 mi Calm Calm - N/A   Clear
10:58 AM 39.9 °F - 10.2 °F 30% 30.16 in 10.0 mi Calm Calm - N/A   Clear
11:18 AM 42.3 °F 40.5 °F 9.7 °F 26% 30.16 in 10.0 mi NNE 3.5 mph - N/A   Clear
11:38 AM 42.8 °F - 9.3 °F 25% 30.15 in 10.0 mi Calm Calm - N/A   Clear
11:58 AM 44.6 °F 41.4 °F 9.7 °F 24% 30.14 in 10.0 mi West 5.8 mph - N/A   Clear
12:18 PM 46.0 °F 43.9 °F 7.9 °F 21% 30.13 in 10.0 mi WSW 4.6 mph - N/A   Clear
12:38 PM 46.4 °F 44.3 °F 6.8 °F 20% 30.12 in 10.0 mi WNW 4.6 mph - N/A   Clear
12:58 PM 48.2 °F - 7.0 °F 19% 30.12 in 10.0 mi NW 5.8 mph - N/A   Clear
1:18 PM 47.7 °F - 5.9 °F 18% 30.10 in 10.0 mi Calm Calm - N/A   Scattered Clouds
1:38 PM 48.4 °F - 5.9 °F 18% 30.10 in 10.0 mi Calm Calm - N/A   Clear
1:58 PM 49.5 °F - 7.3 °F 18% 30.10 in 10.0 mi WNW 6.9 mph - N/A   Clear
2:18 PM 49.8 °F - 7.7 °F 18% 30.10 in 10.0 mi WNW 8.1 mph - N/A   Clear
2:38 PM 51.1 °F - 9.3 °F 19% 30.09 in 10.0 mi NNW 5.8 mph - N/A   Clear
2:58 PM 50.7 °F - 9.9 °F 19% 30.09 in 10.0 mi WNW 6.9 mph - N/A   Clear
3:18 PM 50.5 °F - 10.8 °F 20% 30.09 in 10.0 mi NNW 4.6 mph - N/A   Clear
3:38 PM 51.1 °F - 12.7 °F 22% 30.09 in 10.0 mi West 5.8 mph - N/A   Mostly Cloudy
3:58 PM 50.0 °F - 13.8 °F 24% 30.10 in 10.0 mi West 6.9 mph - N/A   Overcast
4:18 PM 49.3 °F - 15.6 °F 26% 30.10 in 10.0 mi West 4.6 mph - N/A   Mostly Cloudy
4:38 PM 49.1 °F - 14.9 °F 26% 30.09 in 10.0 mi West 3.5 mph - N/A   Scattered Clouds
4:58 PM 47.5 °F - 15.4 °F 28% 30.10 in 10.0 mi Calm Calm - N/A   Clear
5:18 PM 42.8 °F - 25.5 °F 51% 30.11 in 10.0 mi Calm Calm - N/A   Scattered Clouds
5:38 PM 41.2 °F - 26.2 °F 55% 30.12 in 10.0 mi Calm Calm - N/A   Mostly Cloudy
5:58 PM 41.9 °F - 27.3 °F 56% 30.12 in 10.0 mi Calm Calm - N/A   Overcast
6:18 PM 42.1 °F - 26.8 °F 55% 30.12 in 10.0 mi Calm Calm - N/A   Overcast
6:38 PM 42.3 °F - 27.1 °F 55% 30.11 in 10.0 mi Calm Calm - N/A   Overcast
6:58 PM 42.8 °F - 27.7 °F 55% 30.11 in 10.0 mi Calm Calm - N/A   Overcast
7:18 PM 42.6 °F - 26.8 °F 54% 30.12 in 10.0 mi Calm Calm - N/A   Overcast
7:38 PM 41.2 °F - 27.1 °F 57% 30.11 in 10.0 mi Calm Calm - N/A   Overcast
7:58 PM 39.7 °F - 29.3 °F 66% 30.12 in 10.0 mi Calm Calm - N/A   Overcast
8:18 PM 38.3 °F - 29.7 °F 71% 30.12 in 10.0 mi Calm Calm - N/A   Mostly Cloudy
8:38 PM 37.6 °F - 30.6 °F 76% 30.11 in 10.0 mi Calm Calm - N/A   Overcast
8:58 PM 39.2 °F - 31.6 °F 74% 30.12 in 10.0 mi Calm Calm - N/A   Overcast
9:18 PM 39.6 °F - 31.8 °F 74% 30.11 in 10.0 mi Calm Calm - N/A   Overcast
9:38 PM 41.0 °F - 32.0 °F 70% 30.11 in 10.0 mi Calm Calm - N/A   Overcast
9:58 PM 43.0 °F - 30.9 °F 62% 30.10 in 10.0 mi Calm Calm - N/A   Overcast
10:18 PM 43.0 °F - 31.6 °F 64% 30.10 in 10.0 mi Calm Calm - N/A   Overcast
10:38 PM 41.9 °F - 32.4 °F 69% 30.10 in 10.0 mi Calm Calm - N/A   Overcast
10:58 PM 42.3 °F - 32.0 °F 67% 30.09 in 10.0 mi Calm Calm - N/A   Overcast
11:18 PM 41.0 °F - 32.0 °F 70% 30.08 in 10.0 mi Calm Calm - N/A   Overcast
11:38 PM 38.1 °F - 32.0 °F 79% 30.09 in 10.0 mi Calm Calm - N/A   Scattered Clouds
11:58 PM 37.4 °F - 32.0 °F 81% 30.09 in 10.0 mi Calm Calm - N/A   Clear